Year,Month,Day,Hour,Minute,Value (Times are PST for temperature in C)
2015,07,02,00,00,20.90
2015,07,02,00,01,21.00
2015,07,02,00,02,21.00
2015,07,02,00,03,21.00
2015,07,02,00,04,21.00
2015,07,02,00,05,21.00
2015,07,02,00,06,20.90
2015,07,02,00,07,20.90
2015,07,02,00,08,20.90
2015,07,02,00,09,20.90
2015,07,02,00,10,20.90
2015,07,02,00,11,20.90
2015,07,02,00,12,20.90
2015,07,02,00,13,20.90
2015,07,02,00,14,20.90
2015,07,02,00,15,20.90
2015,07,02,00,16,20.90
2015,07,02,00,17,20.90
2015,07,02,00,18,20.90
2015,07,02,00,19,20.90
2015,07,02,00,20,20.90
2015,07,02,00,21,20.90
2015,07,02,00,22,20.90
2015,07,02,00,23,20.90
2015,07,02,00,24,20.90
2015,07,02,00,25,20.80
2015,07,02,00,26,20.80
2015,07,02,00,27,20.80
2015,07,02,00,28,20.80
2015,07,02,00,29,20.80
2015,07,02,00,30,20.80
2015,07,02,00,31,20.80
2015,07,02,00,32,20.80
2015,07,02,00,33,20.80
2015,07,02,00,34,20.80
2015,07,02,00,35,20.80
2015,07,02,00,36,20.80
2015,07,02,00,37,20.80
2015,07,02,00,38,20.80
2015,07,02,00,39,20.70
2015,07,02,00,40,20.70
2015,07,02,00,41,20.70
2015,07,02,00,42,20.70
2015,07,02,00,43,20.70
2015,07,02,00,44,20.70
2015,07,02,00,45,20.70
2015,07,02,00,46,20.70
2015,07,02,00,47,20.70
2015,07,02,00,48,20.70
2015,07,02,00,49,20.70
2015,07,02,00,50,20.70
2015,07,02,00,51,20.70
2015,07,02,00,52,20.70
2015,07,02,00,53,20.70
2015,07,02,00,54,20.70
2015,07,02,00,55,20.70
2015,07,02,00,56,20.70
2015,07,02,00,57,20.70
2015,07,02,00,58,20.70
2015,07,02,00,59,20.70
2015,07,02,01,00,20.70
2015,07,02,01,01,20.70
2015,07,02,01,02,20.60
2015,07,02,01,03,20.60
2015,07,02,01,04,20.60
2015,07,02,01,05,20.60
2015,07,02,01,06,20.60
2015,07,02,01,07,20.60
2015,07,02,01,08,20.60
2015,07,02,01,09,20.60
2015,07,02,01,10,20.60
2015,07,02,01,11,20.60
2015,07,02,01,12,20.60
2015,07,02,01,13,20.60
2015,07,02,01,14,20.60
2015,07,02,01,15,20.60
2015,07,02,01,16,20.60
2015,07,02,01,17,20.60
2015,07,02,01,18,20.60
2015,07,02,01,19,20.60
2015,07,02,01,20,20.60
2015,07,02,01,21,20.50
2015,07,02,01,22,20.50
2015,07,02,01,23,20.40
2015,07,02,01,24,20.40
2015,07,02,01,25,20.40
2015,07,02,01,26,20.40
2015,07,02,01,27,20.40
2015,07,02,01,28,20.30
2015,07,02,01,29,20.30
2015,07,02,01,30,20.30
2015,07,02,01,31,20.30
2015,07,02,01,32,20.30
2015,07,02,01,33,20.20
2015,07,02,01,34,20.20
2015,07,02,01,35,20.20
2015,07,02,01,36,20.20
2015,07,02,01,37,20.20
2015,07,02,01,38,20.20
2015,07,02,01,39,20.20
2015,07,02,01,40,20.20
2015,07,02,01,41,20.20
2015,07,02,01,42,20.20
2015,07,02,01,43,20.20
2015,07,02,01,44,20.10
2015,07,02,01,45,20.10
2015,07,02,01,46,20.10
2015,07,02,01,47,20.10
2015,07,02,01,48,20.10
2015,07,02,01,49,20.10
2015,07,02,01,50,20.10
2015,07,02,01,51,20.10
2015,07,02,01,52,20.10
2015,07,02,01,53,20.10
2015,07,02,01,54,20.10
2015,07,02,01,55,20.10
2015,07,02,01,56,20.10
2015,07,02,01,57,20.10
2015,07,02,01,58,20.10
2015,07,02,01,59,20.10
2015,07,02,02,00,20.10
2015,07,02,02,01,20.10
2015,07,02,02,02,20.10
2015,07,02,02,03,20.10
2015,07,02,02,04,20.10
2015,07,02,02,05,20.00
2015,07,02,02,06,20.00
2015,07,02,02,07,20.00
2015,07,02,02,08,20.00
2015,07,02,02,09,20.00
2015,07,02,02,10,19.90
2015,07,02,02,11,19.90
2015,07,02,02,12,19.90
2015,07,02,02,13,19.90
2015,07,02,02,14,19.90
2015,07,02,02,15,19.80
2015,07,02,02,16,19.80
2015,07,02,02,17,19.80
2015,07,02,02,18,19.80
2015,07,02,02,19,19.80
2015,07,02,02,20,19.80
2015,07,02,02,21,19.70
2015,07,02,02,22,19.70
2015,07,02,02,23,19.70
2015,07,02,02,24,19.70
2015,07,02,02,25,19.70
2015,07,02,02,26,19.60
2015,07,02,02,27,19.60
2015,07,02,02,28,19.60
2015,07,02,02,29,19.60
2015,07,02,02,30,19.60
2015,07,02,02,31,19.60
2015,07,02,02,32,19.50
2015,07,02,02,33,19.50
2015,07,02,02,34,19.50
2015,07,02,02,35,19.50
2015,07,02,02,36,19.50
2015,07,02,02,37,19.50
2015,07,02,02,38,19.50
2015,07,02,02,39,19.40
2015,07,02,02,40,19.40
2015,07,02,02,41,19.40
2015,07,02,02,42,19.40
2015,07,02,02,43,19.40
2015,07,02,02,44,19.50
2015,07,02,02,45,19.50
2015,07,02,02,46,19.50
2015,07,02,02,47,19.50
2015,07,02,02,48,19.50
2015,07,02,02,49,19.50
2015,07,02,02,50,19.50
2015,07,02,02,51,19.60
2015,07,02,02,52,19.60
2015,07,02,02,53,19.60
2015,07,02,02,54,19.60
2015,07,02,02,55,19.50
2015,07,02,02,56,19.50
2015,07,02,02,57,19.50
2015,07,02,02,58,19.50
2015,07,02,02,59,19.50
2015,07,02,03,00,19.50
2015,07,02,03,01,19.40
2015,07,02,03,02,19.30
2015,07,02,03,03,19.20
2015,07,02,03,04,19.20
2015,07,02,03,05,19.10
2015,07,02,03,06,19.10
2015,07,02,03,07,19.10
2015,07,02,03,08,19.10
2015,07,02,03,09,19.00
2015,07,02,03,10,19.00
2015,07,02,03,11,19.00
2015,07,02,03,12,18.90
2015,07,02,03,13,18.90
2015,07,02,03,14,18.90
2015,07,02,03,15,18.90
2015,07,02,03,16,18.90
2015,07,02,03,17,18.90
2015,07,02,03,18,18.90
2015,07,02,03,19,18.80
2015,07,02,03,20,18.80
2015,07,02,03,21,18.80
2015,07,02,03,22,18.80
2015,07,02,03,23,18.80
2015,07,02,03,24,18.80
2015,07,02,03,25,18.80
2015,07,02,03,26,18.80
2015,07,02,03,27,18.80
2015,07,02,03,28,18.80
2015,07,02,03,29,18.80
2015,07,02,03,30,18.80
2015,07,02,03,31,18.80
2015,07,02,03,32,18.80
2015,07,02,03,33,18.80
2015,07,02,03,34,18.80
2015,07,02,03,35,18.80
2015,07,02,03,36,18.80
2015,07,02,03,37,18.90
2015,07,02,03,38,18.90
2015,07,02,03,39,18.90
2015,07,02,03,40,18.90
2015,07,02,03,41,18.90
2015,07,02,03,42,18.90
2015,07,02,03,43,18.90
2015,07,02,03,44,18.90
2015,07,02,03,45,18.90
2015,07,02,03,46,18.90
2015,07,02,03,47,18.90
2015,07,02,03,48,18.90
2015,07,02,03,49,18.80
2015,07,02,03,50,18.80
2015,07,02,03,51,18.80
2015,07,02,03,52,18.80
2015,07,02,03,53,18.80
2015,07,02,03,54,18.70
2015,07,02,03,55,18.70
2015,07,02,03,56,18.70
2015,07,02,03,57,18.70
2015,07,02,03,58,18.70
2015,07,02,03,59,18.60
2015,07,02,04,00,18.60
2015,07,02,04,01,18.60
2015,07,02,04,02,18.60
2015,07,02,04,03,18.50
2015,07,02,04,04,18.50
2015,07,02,04,05,18.40
2015,07,02,04,06,18.40
2015,07,02,04,07,18.40
2015,07,02,04,08,18.30
2015,07,02,04,09,18.30
2015,07,02,04,10,18.30
2015,07,02,04,11,18.30
2015,07,02,04,12,18.30
2015,07,02,04,13,18.30
2015,07,02,04,14,18.30
2015,07,02,04,15,18.30
2015,07,02,04,16,18.30
2015,07,02,04,17,18.30
2015,07,02,04,18,18.30
2015,07,02,04,19,18.30
2015,07,02,04,20,18.30
2015,07,02,04,21,18.30
2015,07,02,04,22,18.30
2015,07,02,04,23,18.30
2015,07,02,04,24,18.30
2015,07,02,04,25,18.30
2015,07,02,04,26,18.30
2015,07,02,04,27,18.40
2015,07,02,04,28,18.40
2015,07,02,04,29,18.40
2015,07,02,04,30,18.40
2015,07,02,04,31,18.40
2015,07,02,04,32,18.50
2015,07,02,04,33,18.50
2015,07,02,04,34,18.60
2015,07,02,04,35,18.60
2015,07,02,04,36,18.60
2015,07,02,04,37,18.60
2015,07,02,04,38,18.60
2015,07,02,04,39,18.60
2015,07,02,04,40,18.60
2015,07,02,04,41,18.60
2015,07,02,04,42,18.60
2015,07,02,04,43,18.60
2015,07,02,04,44,18.60
2015,07,02,04,45,18.50
2015,07,02,04,46,18.50
2015,07,02,04,47,18.50
2015,07,02,04,48,18.50
2015,07,02,04,49,18.60
2015,07,02,04,50,18.60
2015,07,02,04,51,18.60
2015,07,02,04,52,18.70
2015,07,02,04,53,18.70
2015,07,02,04,54,18.70
2015,07,02,04,55,18.70
2015,07,02,04,56,18.80
2015,07,02,04,57,18.80
2015,07,02,04,58,18.80
2015,07,02,04,59,18.90
2015,07,02,05,00,18.90
2015,07,02,05,01,19.00
2015,07,02,05,02,19.00
2015,07,02,05,03,19.10
2015,07,02,05,04,19.10
2015,07,02,05,05,19.20
2015,07,02,05,06,19.20
2015,07,02,05,07,19.30
2015,07,02,05,08,19.30
2015,07,02,05,09,19.30
2015,07,02,05,10,19.30
2015,07,02,05,11,19.30
2015,07,02,05,12,19.30
2015,07,02,05,13,19.30
2015,07,02,05,14,19.30
2015,07,02,05,15,19.30
2015,07,02,05,16,19.40
2015,07,02,05,17,19.40
2015,07,02,05,18,19.40
2015,07,02,05,19,19.40
2015,07,02,05,20,19.40
2015,07,02,05,21,19.40
2015,07,02,05,22,19.40
2015,07,02,05,23,19.40
2015,07,02,05,24,19.30
2015,07,02,05,25,19.30
2015,07,02,05,26,19.30
2015,07,02,05,27,19.30
2015,07,02,05,28,19.20
2015,07,02,05,29,19.20
2015,07,02,05,30,19.20
2015,07,02,05,31,19.20
2015,07,02,05,32,19.10
2015,07,02,05,33,19.00
2015,07,02,05,34,19.00
2015,07,02,05,35,18.90
2015,07,02,05,36,18.80
2015,07,02,05,37,18.80
2015,07,02,05,38,18.70
2015,07,02,05,39,18.70
2015,07,02,05,40,18.60
2015,07,02,05,41,18.60
2015,07,02,05,42,18.50
2015,07,02,05,43,18.50
2015,07,02,05,44,18.40
2015,07,02,05,45,18.40
2015,07,02,05,46,18.30
2015,07,02,05,47,18.30
2015,07,02,05,48,18.20
2015,07,02,05,49,18.20
2015,07,02,05,50,18.10
2015,07,02,05,51,18.10
2015,07,02,05,52,18.00
2015,07,02,05,53,18.00
2015,07,02,05,54,18.00
2015,07,02,05,55,18.00
2015,07,02,05,56,17.90
2015,07,02,05,57,17.90
2015,07,02,05,58,17.90
2015,07,02,05,59,17.90
2015,07,02,06,00,17.90
2015,07,02,06,01,17.90
2015,07,02,06,02,17.90
2015,07,02,06,03,17.90
2015,07,02,06,04,17.90
2015,07,02,06,05,17.90
2015,07,02,06,06,17.90
2015,07,02,06,07,18.00
2015,07,02,06,08,18.00
2015,07,02,06,09,18.00
2015,07,02,06,10,18.10
2015,07,02,06,11,18.10
2015,07,02,06,12,18.10
2015,07,02,06,13,18.10
2015,07,02,06,14,18.10
2015,07,02,06,15,18.10
2015,07,02,06,16,18.20
2015,07,02,06,17,18.20
2015,07,02,06,18,18.30
2015,07,02,06,19,18.30
2015,07,02,06,20,18.30
2015,07,02,06,21,18.40
2015,07,02,06,22,18.40
2015,07,02,06,23,18.50
2015,07,02,06,24,18.60
2015,07,02,06,25,18.60
2015,07,02,06,26,18.70
2015,07,02,06,27,18.80
2015,07,02,06,28,18.80
2015,07,02,06,29,18.80
2015,07,02,06,30,18.90
2015,07,02,06,31,18.90
2015,07,02,06,32,18.90
2015,07,02,06,33,18.90
2015,07,02,06,34,18.90
2015,07,02,06,35,18.90
2015,07,02,06,36,18.90
2015,07,02,06,37,18.90
2015,07,02,06,38,19.00
2015,07,02,06,39,19.00
2015,07,02,06,40,19.00
2015,07,02,06,41,19.00
2015,07,02,06,42,19.00
2015,07,02,06,43,19.00
2015,07,02,06,44,19.00
2015,07,02,06,45,19.10
2015,07,02,06,46,19.10
2015,07,02,06,47,19.10
2015,07,02,06,48,19.10
2015,07,02,06,49,19.20
2015,07,02,06,50,19.20
2015,07,02,06,51,19.20
2015,07,02,06,52,19.30
2015,07,02,06,53,19.30
2015,07,02,06,54,19.30
2015,07,02,06,55,19.30
2015,07,02,06,56,19.40
2015,07,02,06,57,19.40
2015,07,02,06,58,19.40
2015,07,02,06,59,19.50
2015,07,02,07,00,19.50
2015,07,02,07,01,19.50
2015,07,02,07,02,19.50
2015,07,02,07,03,19.50
2015,07,02,07,04,19.50
2015,07,02,07,05,19.50
2015,07,02,07,06,19.50
2015,07,02,07,07,19.50
2015,07,02,07,08,19.50
2015,07,02,07,09,19.50
2015,07,02,07,10,19.40
2015,07,02,07,11,19.40
2015,07,02,07,12,19.40
2015,07,02,07,13,19.40
2015,07,02,07,14,19.40
2015,07,02,07,15,19.40
2015,07,02,07,16,19.40
2015,07,02,07,17,19.40
2015,07,02,07,18,19.40
2015,07,02,07,19,19.40
2015,07,02,07,20,19.50
2015,07,02,07,21,19.50
2015,07,02,07,22,19.60
2015,07,02,07,23,19.60
2015,07,02,07,24,19.70
2015,07,02,07,25,19.70
2015,07,02,07,26,19.80
2015,07,02,07,27,19.90
2015,07,02,07,28,20.00
2015,07,02,07,29,20.10
2015,07,02,07,30,20.10
2015,07,02,07,31,20.20
2015,07,02,07,32,20.30
2015,07,02,07,33,20.40
2015,07,02,07,34,20.50
2015,07,02,07,35,20.50
2015,07,02,07,36,20.60
2015,07,02,07,37,20.70
2015,07,02,07,38,20.70
2015,07,02,07,39,20.80
2015,07,02,07,40,20.80
2015,07,02,07,41,20.90
2015,07,02,07,42,20.90
2015,07,02,07,43,21.00
2015,07,02,07,44,21.00
2015,07,02,07,45,21.10
2015,07,02,07,46,21.20
2015,07,02,07,47,21.20
2015,07,02,07,48,21.30
2015,07,02,07,49,21.30
2015,07,02,07,50,21.40
2015,07,02,07,51,21.40
2015,07,02,07,52,21.50
2015,07,02,07,53,21.50
2015,07,02,07,54,21.60
2015,07,02,07,55,21.60
2015,07,02,07,56,21.70
2015,07,02,07,57,21.70
2015,07,02,07,58,21.70
2015,07,02,07,59,21.80
2015,07,02,08,00,21.80
2015,07,02,08,01,21.90
2015,07,02,08,02,21.90
2015,07,02,08,03,22.00
2015,07,02,08,04,22.10
2015,07,02,08,05,22.10
2015,07,02,08,06,22.00
2015,07,02,08,07,22.00
2015,07,02,08,08,21.90
2015,07,02,08,09,21.70
2015,07,02,08,10,21.60
2015,07,02,08,11,21.40
2015,07,02,08,12,21.30
2015,07,02,08,13,21.10
2015,07,02,08,14,20.90
2015,07,02,08,15,20.70
2015,07,02,08,16,20.60
2015,07,02,08,17,20.50
2015,07,02,08,18,20.40
2015,07,02,08,19,20.30
2015,07,02,08,20,20.30
2015,07,02,08,21,20.30
2015,07,02,08,22,20.30
2015,07,02,08,23,20.30
2015,07,02,08,24,20.30
2015,07,02,08,25,20.30
2015,07,02,08,26,20.30
2015,07,02,08,27,20.30
2015,07,02,08,28,20.20
2015,07,02,08,29,20.20
2015,07,02,08,30,20.10
2015,07,02,08,31,20.10
2015,07,02,08,32,20.10
2015,07,02,08,33,20.10
2015,07,02,08,34,20.20
2015,07,02,08,35,20.30
2015,07,02,08,36,20.40
2015,07,02,08,37,20.60
2015,07,02,08,38,20.70
2015,07,02,08,39,20.90
2015,07,02,08,40,21.10
2015,07,02,08,41,21.30
2015,07,02,08,42,21.40
2015,07,02,08,43,21.60
2015,07,02,08,44,21.70
2015,07,02,08,45,21.70
2015,07,02,08,46,21.80
2015,07,02,08,47,21.80
2015,07,02,08,48,21.80
2015,07,02,08,49,21.80
2015,07,02,08,50,21.80
2015,07,02,08,51,21.70
2015,07,02,08,52,21.70
2015,07,02,08,53,21.70
2015,07,02,08,54,21.80
2015,07,02,08,55,21.80
2015,07,02,08,56,21.90
2015,07,02,08,57,21.90
2015,07,02,08,58,22.00
2015,07,02,08,59,22.10
2015,07,02,09,00,22.20
2015,07,02,09,01,22.30
2015,07,02,09,02,22.30
2015,07,02,09,03,22.40
2015,07,02,09,04,22.50
2015,07,02,09,05,22.50
2015,07,02,09,06,22.60
2015,07,02,09,07,22.70
2015,07,02,09,08,22.70
2015,07,02,09,09,22.70
2015,07,02,09,10,22.70
2015,07,02,09,11,22.70
2015,07,02,09,12,22.70
2015,07,02,09,13,22.80
2015,07,02,09,14,22.80
2015,07,02,09,15,22.80
2015,07,02,09,16,22.80
2015,07,02,09,17,22.80
2015,07,02,09,18,22.80
2015,07,02,09,19,22.80
2015,07,02,09,20,22.80
2015,07,02,09,21,22.80
2015,07,02,09,22,22.80
2015,07,02,09,23,22.80
2015,07,02,09,24,22.80
2015,07,02,09,25,22.90
2015,07,02,09,26,22.90
2015,07,02,09,27,22.90
2015,07,02,09,28,22.90
2015,07,02,09,29,22.60
2015,07,02,09,30,22.30
2015,07,02,09,31,21.90
2015,07,02,09,32,21.60
2015,07,02,09,33,21.20
2015,07,02,09,34,20.70
2015,07,02,09,35,20.30
2015,07,02,09,36,19.90
2015,07,02,09,37,19.50
2015,07,02,09,38,19.20
2015,07,02,09,39,19.00
2015,07,02,09,40,18.90
2015,07,02,09,41,18.80
2015,07,02,09,42,18.70
2015,07,02,09,43,18.60
2015,07,02,09,44,18.40
2015,07,02,09,45,18.20
2015,07,02,09,46,18.00
2015,07,02,09,47,18.00
2015,07,02,09,48,18.00
2015,07,02,09,49,18.00
2015,07,02,09,50,18.10
2015,07,02,09,51,18.20
2015,07,02,09,52,18.40
2015,07,02,09,53,18.60
2015,07,02,09,54,18.90
2015,07,02,09,55,19.10
2015,07,02,09,56,19.20
2015,07,02,09,57,19.20
2015,07,02,09,58,19.20
2015,07,02,09,59,19.20
2015,07,02,10,00,19.30
2015,07,02,10,01,19.40
2015,07,02,10,02,19.40
2015,07,02,10,03,19.50
2015,07,02,10,04,19.60
2015,07,02,10,05,19.60
2015,07,02,10,06,19.60
2015,07,02,10,07,19.60
2015,07,02,10,08,19.60
2015,07,02,10,09,19.60
2015,07,02,10,10,19.70
2015,07,02,10,11,19.70
2015,07,02,10,12,19.80
2015,07,02,10,13,19.80
2015,07,02,10,14,19.90
2015,07,02,10,15,19.90
2015,07,02,10,16,19.90
2015,07,02,10,17,20.00
2015,07,02,10,18,20.00
2015,07,02,10,19,20.00
2015,07,02,10,20,20.10
2015,07,02,10,21,20.10
2015,07,02,10,22,20.10
2015,07,02,10,23,20.20
2015,07,02,10,24,20.20
2015,07,02,10,25,20.30
2015,07,02,10,26,20.30
2015,07,02,10,27,20.40
2015,07,02,10,28,20.50
2015,07,02,10,29,20.60
2015,07,02,10,30,20.70
2015,07,02,10,31,20.80
2015,07,02,10,32,20.90
2015,07,02,10,33,21.00
2015,07,02,10,34,21.10
2015,07,02,10,35,21.20
2015,07,02,10,36,21.30
2015,07,02,10,37,21.40
2015,07,02,10,38,21.50
2015,07,02,10,39,21.60
2015,07,02,10,40,21.70
2015,07,02,10,41,21.80
2015,07,02,10,42,22.00
2015,07,02,10,43,22.10
2015,07,02,10,44,22.20
2015,07,02,10,45,22.40
2015,07,02,10,46,22.50
2015,07,02,10,47,22.70
2015,07,02,10,48,22.80
2015,07,02,10,49,22.90
2015,07,02,10,50,23.00
2015,07,02,10,51,23.10
2015,07,02,10,52,23.10
2015,07,02,10,53,23.10
2015,07,02,10,54,23.10
2015,07,02,10,55,23.20
2015,07,02,10,56,23.20
2015,07,02,10,57,23.20
2015,07,02,10,58,23.30
2015,07,02,10,59,23.30
2015,07,02,11,00,23.40
2015,07,02,11,01,23.40
2015,07,02,11,02,23.50
2015,07,02,11,03,23.60
2015,07,02,11,04,23.80
2015,07,02,11,05,24.00
2015,07,02,11,06,24.10
2015,07,02,11,07,24.30
2015,07,02,11,08,24.40
2015,07,02,11,09,24.50
2015,07,02,11,10,24.60
2015,07,02,11,11,24.60
2015,07,02,11,12,24.70
2015,07,02,11,13,24.80
2015,07,02,11,14,24.90
2015,07,02,11,15,25.00
2015,07,02,11,16,25.00
2015,07,02,11,17,25.10
2015,07,02,11,18,25.20
2015,07,02,11,19,25.20
2015,07,02,11,20,25.30
2015,07,02,11,21,25.20
2015,07,02,11,22,25.10
2015,07,02,11,23,24.90
2015,07,02,11,24,24.80
2015,07,02,11,25,24.70
2015,07,02,11,26,24.70
2015,07,02,11,27,24.60
2015,07,02,11,28,24.50
2015,07,02,11,29,24.40
2015,07,02,11,30,24.30
2015,07,02,11,31,24.20
2015,07,02,11,32,24.20
2015,07,02,11,33,24.20
2015,07,02,11,34,24.20
2015,07,02,11,35,24.20
2015,07,02,11,36,24.00
2015,07,02,11,37,23.80
2015,07,02,11,38,23.70
2015,07,02,11,39,23.70
2015,07,02,11,40,23.60
2015,07,02,11,41,23.60
2015,07,02,11,42,23.50
2015,07,02,11,43,23.40
2015,07,02,11,44,23.40
2015,07,02,11,45,23.30
2015,07,02,11,46,23.20
2015,07,02,11,47,23.20
2015,07,02,11,48,23.20
2015,07,02,11,49,23.20
2015,07,02,11,50,23.30
2015,07,02,11,51,23.30
2015,07,02,11,52,23.40
2015,07,02,11,53,23.40
2015,07,02,11,54,23.40
2015,07,02,11,55,23.40
2015,07,02,11,56,23.40
2015,07,02,11,57,23.40
2015,07,02,11,58,23.30
2015,07,02,11,59,23.30
2015,07,02,12,00,23.40
2015,07,02,12,01,23.40
2015,07,02,12,02,23.40
2015,07,02,12,03,23.40
2015,07,02,12,04,23.40
2015,07,02,12,05,23.50
2015,07,02,12,06,23.70
2015,07,02,12,07,23.80
2015,07,02,12,08,24.00
2015,07,02,12,09,24.10
2015,07,02,12,10,24.30
2015,07,02,12,11,24.40
2015,07,02,12,12,24.30
2015,07,02,12,13,24.20
2015,07,02,12,14,24.10
2015,07,02,12,15,23.90
2015,07,02,12,16,23.70
2015,07,02,12,17,23.60
2015,07,02,12,18,23.50
2015,07,02,12,19,23.40
2015,07,02,12,20,23.40
2015,07,02,12,21,23.30
2015,07,02,12,22,23.20
2015,07,02,12,23,23.00
2015,07,02,12,24,22.90
2015,07,02,12,25,22.80
2015,07,02,12,26,22.60
2015,07,02,12,27,22.60
2015,07,02,12,28,22.50
2015,07,02,12,29,22.60
2015,07,02,12,30,22.70
2015,07,02,12,31,22.80
2015,07,02,12,32,22.90
2015,07,02,12,33,23.00
2015,07,02,12,34,23.00
2015,07,02,12,35,23.00
2015,07,02,12,36,23.00
2015,07,02,12,37,23.00
2015,07,02,12,38,23.10
2015,07,02,12,39,23.00
2015,07,02,12,40,22.90
2015,07,02,12,41,22.70
2015,07,02,12,42,22.50
2015,07,02,12,43,22.40
2015,07,02,12,44,22.40
2015,07,02,12,45,22.50
2015,07,02,12,46,22.50
2015,07,02,12,47,22.60
2015,07,02,12,48,22.70
2015,07,02,12,49,22.80
2015,07,02,12,50,22.90
2015,07,02,12,51,23.00
2015,07,02,12,52,23.10
2015,07,02,12,53,23.20
2015,07,02,12,54,23.30
2015,07,02,12,55,23.40
2015,07,02,12,56,23.60
2015,07,02,12,57,23.70
2015,07,02,12,58,23.80
2015,07,02,12,59,23.90
2015,07,02,13,00,24.00
2015,07,02,13,01,24.10
2015,07,02,13,02,24.20
2015,07,02,13,03,24.30
2015,07,02,13,04,24.40
2015,07,02,13,05,24.50
2015,07,02,13,06,24.60
2015,07,02,13,07,24.70
2015,07,02,13,08,24.70
2015,07,02,13,09,24.80
2015,07,02,13,10,24.90
2015,07,02,13,11,25.00
2015,07,02,13,12,25.10
2015,07,02,13,13,25.20
2015,07,02,13,14,25.30
2015,07,02,13,15,25.30
2015,07,02,13,16,25.30
2015,07,02,13,17,25.30
2015,07,02,13,18,25.30
2015,07,02,13,19,25.20
2015,07,02,13,20,25.20
2015,07,02,13,21,25.10
2015,07,02,13,22,25.20
2015,07,02,13,23,25.20
2015,07,02,13,24,25.20
2015,07,02,13,25,25.30
2015,07,02,13,26,25.30
2015,07,02,13,27,25.40
2015,07,02,13,28,25.50
2015,07,02,13,29,25.60
2015,07,02,13,30,25.70
2015,07,02,13,31,25.80
2015,07,02,13,32,25.80
2015,07,02,13,33,25.90
2015,07,02,13,34,25.90
2015,07,02,13,35,25.90
2015,07,02,13,36,26.00
2015,07,02,13,37,26.10
2015,07,02,13,38,26.10
2015,07,02,13,39,26.20
2015,07,02,13,40,26.20
2015,07,02,13,41,26.20
2015,07,02,13,42,26.20
2015,07,02,13,43,26.20
2015,07,02,13,44,26.30
2015,07,02,13,45,26.40
2015,07,02,13,46,26.60
2015,07,02,13,47,26.70
2015,07,02,13,48,26.90
2015,07,02,13,49,27.00
2015,07,02,13,50,27.10
2015,07,02,13,51,27.30
2015,07,02,13,52,27.30
2015,07,02,13,53,27.30
2015,07,02,13,54,27.40
2015,07,02,13,55,27.40
2015,07,02,13,56,27.50
2015,07,02,13,57,27.50
2015,07,02,13,58,27.60
2015,07,02,13,59,27.60
2015,07,02,14,00,27.60
2015,07,02,14,01,27.60
2015,07,02,14,02,27.60
2015,07,02,14,03,27.70
2015,07,02,14,04,27.80
2015,07,02,14,05,27.80
2015,07,02,14,06,27.80
2015,07,02,14,07,27.80
2015,07,02,14,08,27.80
2015,07,02,14,09,27.80
2015,07,02,14,10,27.80
2015,07,02,14,11,27.80
2015,07,02,14,12,27.80
2015,07,02,14,13,27.80
2015,07,02,14,14,27.80
2015,07,02,14,15,27.90
2015,07,02,14,16,27.90
2015,07,02,14,17,27.90
2015,07,02,14,18,28.00
2015,07,02,14,19,28.00
2015,07,02,14,20,28.00
2015,07,02,14,21,28.00
2015,07,02,14,22,28.00
2015,07,02,14,23,28.10
2015,07,02,14,24,28.10
2015,07,02,14,25,28.00
2015,07,02,14,26,28.00
2015,07,02,14,27,27.90
2015,07,02,14,28,27.80
2015,07,02,14,29,27.80
2015,07,02,14,30,27.70
2015,07,02,14,31,27.70
2015,07,02,14,32,27.70
2015,07,02,14,33,27.70
2015,07,02,14,34,27.70
2015,07,02,14,35,27.70
2015,07,02,14,36,27.70
2015,07,02,14,37,27.80
2015,07,02,14,38,27.70
2015,07,02,14,39,27.70
2015,07,02,14,40,27.60
2015,07,02,14,41,27.60
2015,07,02,14,42,27.60
2015,07,02,14,43,27.60
2015,07,02,14,44,27.60
2015,07,02,14,45,27.70
2015,07,02,14,46,27.70
2015,07,02,14,47,27.70
2015,07,02,14,48,27.70
2015,07,02,14,49,27.60
2015,07,02,14,50,27.60
2015,07,02,14,51,27.60
2015,07,02,14,52,27.60
2015,07,02,14,53,27.50
2015,07,02,14,54,27.40
2015,07,02,14,55,27.20
2015,07,02,14,56,27.00
2015,07,02,14,57,26.70
2015,07,02,14,58,26.30
2015,07,02,14,59,26.00
2015,07,02,15,00,25.70
2015,07,02,15,01,25.50
2015,07,02,15,02,25.30
2015,07,02,15,03,25.00
2015,07,02,15,04,24.80
2015,07,02,15,05,24.60
2015,07,02,15,06,24.50
2015,07,02,15,07,24.30
2015,07,02,15,08,24.10
2015,07,02,15,09,24.00
2015,07,02,15,10,23.90
2015,07,02,15,11,23.80
2015,07,02,15,12,23.90
2015,07,02,15,13,23.90
2015,07,02,15,14,24.00
2015,07,02,15,15,24.10
2015,07,02,15,16,24.20
2015,07,02,15,17,24.30
2015,07,02,15,18,24.40
2015,07,02,15,19,24.50
2015,07,02,15,20,24.60
2015,07,02,15,21,24.60
2015,07,02,15,22,24.70
2015,07,02,15,23,24.70
2015,07,02,15,24,24.80
2015,07,02,15,25,24.90
2015,07,02,15,26,25.00
2015,07,02,15,27,25.10
2015,07,02,15,28,25.20
2015,07,02,15,29,25.30
2015,07,02,15,30,25.40
2015,07,02,15,31,25.60
2015,07,02,15,32,25.70
2015,07,02,15,33,25.80
2015,07,02,15,34,25.80
2015,07,02,15,35,25.90
2015,07,02,15,36,26.00
2015,07,02,15,37,26.10
2015,07,02,15,38,26.20
2015,07,02,15,39,26.30
2015,07,02,15,40,26.40
2015,07,02,15,41,26.50
2015,07,02,15,42,26.60
2015,07,02,15,43,26.60
2015,07,02,15,44,26.60
2015,07,02,15,45,26.50
2015,07,02,15,46,26.50
2015,07,02,15,47,26.50
2015,07,02,15,48,26.50
2015,07,02,15,49,26.60
2015,07,02,15,50,26.60
2015,07,02,15,51,26.50
2015,07,02,15,52,26.50
2015,07,02,15,53,26.40
2015,07,02,15,54,26.30
2015,07,02,15,55,26.20
2015,07,02,15,56,26.00
2015,07,02,15,57,25.90
2015,07,02,15,58,25.80
2015,07,02,15,59,25.80
2015,07,02,16,00,25.80
2015,07,02,16,01,25.70
2015,07,02,16,02,25.70
2015,07,02,16,03,25.70
2015,07,02,16,04,25.70
2015,07,02,16,05,25.60
2015,07,02,16,06,25.60
2015,07,02,16,07,25.60
2015,07,02,16,08,25.70
2015,07,02,16,09,25.70
2015,07,02,16,10,25.70
2015,07,02,16,11,25.70
2015,07,02,16,12,25.70
2015,07,02,16,13,25.70
2015,07,02,16,14,25.60
2015,07,02,16,15,25.60
2015,07,02,16,16,25.60
2015,07,02,16,17,25.70
2015,07,02,16,18,25.70
2015,07,02,16,19,25.80
2015,07,02,16,20,25.80
2015,07,02,16,21,25.90
2015,07,02,16,22,26.10
2015,07,02,16,23,26.20
2015,07,02,16,24,26.30
2015,07,02,16,25,26.40
2015,07,02,16,26,26.50
2015,07,02,16,27,26.60
2015,07,02,16,28,26.60
2015,07,02,16,29,26.70
2015,07,02,16,30,26.80
2015,07,02,16,31,26.80
2015,07,02,16,32,26.80
2015,07,02,16,33,26.80
2015,07,02,16,34,26.70
2015,07,02,16,35,26.60
2015,07,02,16,36,26.60
2015,07,02,16,37,26.50
2015,07,02,16,38,26.60
2015,07,02,16,39,26.60
2015,07,02,16,40,26.70
2015,07,02,16,41,26.80
2015,07,02,16,42,26.90
2015,07,02,16,43,26.90
2015,07,02,16,44,26.90
2015,07,02,16,45,26.90
2015,07,02,16,46,26.90
2015,07,02,16,47,26.70
2015,07,02,16,48,26.60
2015,07,02,16,49,26.40
2015,07,02,16,50,26.20
2015,07,02,16,51,26.10
2015,07,02,16,52,25.90
2015,07,02,16,53,25.80
2015,07,02,16,54,25.60
2015,07,02,16,55,25.40
2015,07,02,16,56,25.20
2015,07,02,16,57,25.00
2015,07,02,16,58,24.80
2015,07,02,16,59,24.70
2015,07,02,17,00,24.50
2015,07,02,17,01,24.40
2015,07,02,17,02,24.30
2015,07,02,17,03,24.20
2015,07,02,17,04,24.20
2015,07,02,17,05,24.10
2015,07,02,17,06,24.10
2015,07,02,17,07,24.10
2015,07,02,17,08,24.00
2015,07,02,17,09,24.00
2015,07,02,17,10,23.90
2015,07,02,17,11,23.90
2015,07,02,17,12,23.90
2015,07,02,17,13,23.90
2015,07,02,17,14,23.90
2015,07,02,17,15,23.90
2015,07,02,17,16,23.90
2015,07,02,17,17,23.90
2015,07,02,17,18,24.00
2015,07,02,17,19,24.00